AHY5031 UBBB-UZTT

Flight info

Callsign AHY5031
Flight time N/A
Altitude 37000
Route NAMAS N35 RODAR A909 TUNEK B143 KRS B738 NEBIT B476 DARVA/K0811F370 T898 OGOLI N193 DIBAD DIBAD2T
Aircraft A320/M-SDE3FGHIRWY/LB1

Departure

Time N/A
Airport Heydar Aliyev International Airport (UBBB)

Arrival

Time 2026-04-26 17:26
Airport Tashkent International Airport (UZTT)
Time Latitude Longitude Altitude Speed Heading
2026-04-26 16:42 41.48323 65.93801 35183 ft 488 kts 92°
2026-04-26 16:42 41.48326 65.98325 35183 ft 488 kts 92°
2026-04-26 16:43 41.48337 66.16344 35183 ft 487 kts 92°
2026-04-26 16:43 41.48346 66.25379 35183 ft 487 kts 92°
2026-04-26 16:44 41.48339 66.34423 35182 ft 487 kts 92°
2026-04-26 16:44 41.48326 66.43456 35183 ft 488 kts 92°
2026-04-26 16:45 41.48307 66.52500 35183 ft 488 kts 92°
2026-04-26 16:45 41.48122 66.61527 35180 ft 485 kts 100°
2026-04-26 16:46 41.46914 66.70287 35182 ft 483 kts 104°
2026-04-26 16:46 41.45633 66.79093 35183 ft 484 kts 104°
2026-04-26 16:47 41.44347 66.87904 35183 ft 484 kts 104°
2026-04-26 16:47 41.43045 66.96706 35183 ft 484 kts 104°
2026-04-26 16:48 41.41743 67.05521 35182 ft 485 kts 104°
2026-04-26 16:48 41.40435 67.14275 35182 ft 486 kts 104°
2026-04-26 16:49 41.39111 67.23094 35172 ft 486 kts 104°
2026-04-26 16:49 41.37781 67.31910 35171 ft 484 kts 104°
2026-04-26 16:50 41.37134 67.36241 35169 ft 468 kts 104°
2026-04-26 16:50 41.36510 67.40450 35173 ft 460 kts 104°
2026-04-26 16:50 41.35269 67.48657 35172 ft 439 kts 105°
2026-04-26 16:51 41.34667 67.52589 35050 ft 428 kts 105°
2026-04-26 16:51 41.34073 67.56433 34759 ft 421 kts 105°
2026-04-26 16:51 41.33485 67.60228 34400 ft 417 kts 105°
2026-04-26 16:51 41.32911 67.63945 33889 ft 417 kts 105°
2026-04-26 16:52 41.32319 67.67750 33073 ft 423 kts 105°
2026-04-26 16:52 41.31914 67.70347 32531 ft 425 kts 104°
2026-04-26 16:52 41.31120 67.75423 31447 ft 422 kts 104°
2026-04-26 16:52 41.30526 67.79233 30613 ft 420 kts 104°
2026-04-26 16:53 41.29935 67.83018 29791 ft 417 kts 103°
2026-04-26 16:53 41.29347 67.86783 28968 ft 414 kts 103°
2026-04-26 16:53 41.28765 67.90521 28138 ft 412 kts 103°
2026-04-26 16:53 41.28093 67.94200 27314 ft 412 kts 111°
2026-04-26 16:54 41.27108 67.97864 26478 ft 422 kts 112°
2026-04-26 16:54 41.26130 68.01455 25661 ft 416 kts 112°
2026-04-26 16:54 41.25148 68.05057 24602 ft 415 kts 112°
2026-04-26 16:54 41.24164 68.08662 23494 ft 415 kts 111°
2026-04-26 16:55 41.23178 68.12263 22394 ft 414 kts 111°
2026-04-26 16:55 41.22193 68.15853 21292 ft 413 kts 111°
2026-04-26 16:55 41.21212 68.19426 20193 ft 411 kts 111°
2026-04-26 16:55 41.20235 68.22985 19100 ft 409 kts 111°
2026-04-26 16:56 41.18303 68.30013 16934 ft 402 kts 111°
2026-04-26 16:56 41.17349 68.33480 15872 ft 397 kts 112°
2026-04-26 16:56 41.16411 68.36910 14804 ft 394 kts 110°
2026-04-26 16:57 41.15871 68.40401 13766 ft 391 kts 92°
2026-04-26 16:57 41.16115 68.43964 12735 ft 385 kts 82°
2026-04-26 16:57 41.16929 68.50879 10709 ft 372 kts 81°
2026-04-26 16:58 41.17334 68.54240 9721 ft 365 kts 81°
2026-04-26 16:58 41.17595 68.56421 9245 ft 356 kts 82°
2026-04-26 16:58 41.18409 68.63351 8915 ft 302 kts 82°
2026-04-26 16:59 41.18723 68.66048 8781 ft 290 kts 82°
2026-04-26 16:59 41.19317 68.71147 8528 ft 268 kts 82°
2026-04-26 17:00 41.19856 68.75827 8263 ft 253 kts 82°
2026-04-26 17:00 41.20396 68.80523 7459 ft 255 kts 81°
2026-04-26 17:00 41.20660 68.82807 7330 ft 247 kts 81°
2026-04-26 17:01 41.20917 68.85050 7203 ft 245 kts 81°
2026-04-26 17:01 41.21173 68.87284 7077 ft 244 kts 81°
2026-04-26 17:01 41.21426 68.89505 6941 ft 244 kts 81°
2026-04-26 17:01 41.21683 68.91758 6465 ft 248 kts 81°
2026-04-26 17:02 41.21942 68.94039 6030 ft 251 kts 81°
2026-04-26 17:02 41.22203 68.96344 5585 ft 254 kts 81°
2026-04-26 17:02 41.22314 68.98652 5231 ft 254 kts 95°
2026-04-26 17:02 41.21879 69.00881 5045 ft 245 kts 112°
2026-04-26 17:03 41.21224 69.02927 4929 ft 237 kts 112°
2026-04-26 17:03 41.20869 69.04993 4797 ft 226 kts 85°
2026-04-26 17:03 41.21409 69.06891 4585 ft 223 kts 50°
2026-04-26 17:03 41.22352 69.08531 4324 ft 224 kts 64°
2026-04-26 17:04 41.22725 69.10525 4102 ft 223 kts 81°
2026-04-26 17:04 41.23194 69.12406 4022 ft 210 kts 50°
2026-04-26 17:04 41.24066 69.13842 4046 ft 190 kts 59°
2026-04-26 17:04 41.24395 69.15447 3881 ft 177 kts 77°
2026-04-26 17:05 41.24624 69.17060 3532 ft 173 kts 78°
2026-04-26 17:05 41.24782 69.18529 3579 ft 157 kts 82°
2026-04-26 17:05 41.24862 69.19955 3691 ft 153 kts 86°
2026-04-26 17:05 41.25036 69.21389 3717 ft 160 kts 76°
2026-04-26 17:06 41.25260 69.22872 3899 ft 172 kts 77°
2026-04-26 17:06 41.25515 69.24503 4019 ft 185 kts 77°
2026-04-26 17:06 41.25777 69.26183 4034 ft 186 kts 77°
2026-04-26 17:06 41.26039 69.27877 4041 ft 191 kts 77°
2026-04-26 17:07 41.26316 69.29629 4040 ft 195 kts 77°
2026-04-26 17:07 41.26578 69.31403 4034 ft 197 kts 80°
2026-04-26 17:07 41.26745 69.33212 4034 ft 197 kts 83°
2026-04-26 17:07 41.26888 69.35027 4039 ft 197 kts 83°
2026-04-26 17:08 41.27030 69.36841 4035 ft 197 kts 83°
2026-04-26 17:08 41.27173 69.38658 4035 ft 197 kts 83°
2026-04-26 17:08 41.27317 69.40471 4035 ft 197 kts 82°
2026-04-26 17:08 41.27442 69.42289 4029 ft 198 kts 90°
2026-04-26 17:09 41.26937 69.43929 4028 ft 198 kts 137°
2026-04-26 17:09 41.26148 69.44494 4041 ft 197 kts 169°
2026-04-26 17:09 41.24329 69.44593 4042 ft 197 kts 179°
2026-04-26 17:09 41.22956 69.44657 4037 ft 198 kts 178°
2026-04-26 17:10 41.21585 69.44769 4039 ft 198 kts 176°
2026-04-26 17:10 41.20214 69.44917 4037 ft 197 kts 175°
2026-04-26 17:10 41.18848 69.45083 4034 ft 198 kts 177°
2026-04-26 17:10 41.17516 69.44767 4022 ft 195 kts 207°
2026-04-26 17:11 41.16494 69.43612 4033 ft 194 kts 234°
2026-04-26 17:11 41.15695 69.42168 4033 ft 194 kts 234°
2026-04-26 17:11 41.14888 69.40732 4027 ft 194 kts 234°
2026-04-26 17:11 41.14077 69.39293 4021 ft 195 kts 235°
2026-04-26 17:12 41.12456 69.36421 4029 ft 194 kts 235°
2026-04-26 17:12 41.11644 69.34988 4029 ft 195 kts 234°
2026-04-26 17:13 41.10035 69.32148 4027 ft 191 kts 234°
2026-04-26 17:13 41.09246 69.30752 4031 ft 188 kts 234°
2026-04-26 17:13 41.07685 69.27981 4033 ft 188 kts 234°
2026-04-26 17:14 41.06903 69.26599 4028 ft 187 kts 234°
2026-04-26 17:14 41.05341 69.23838 4030 ft 188 kts 235°
2026-04-26 17:14 41.04558 69.22455 4025 ft 187 kts 234°
2026-04-26 17:15 41.02976 69.19666 4018 ft 190 kts 234°
2026-04-26 17:15 41.02181 69.18261 4021 ft 191 kts 234°
2026-04-26 17:15 41.01386 69.16857 4025 ft 191 kts 234°
2026-04-26 17:16 41.00602 69.15468 4032 ft 191 kts 235°
2026-04-26 17:16 41.00106 69.13877 4027 ft 188 kts 265°
2026-04-26 17:16 41.00174 69.12162 4023 ft 187 kts 289°
2026-04-26 17:16 41.00790 69.10665 4019 ft 185 kts 316°
2026-04-26 17:17 41.01810 69.09625 4026 ft 186 kts 332°
2026-04-26 17:17 41.03009 69.08973 4030 ft 186 kts 338°
2026-04-26 17:17 41.04218 69.08348 4030 ft 186 kts 338°
2026-04-26 17:17 41.05422 69.07725 4030 ft 186 kts 339°
2026-04-26 17:18 41.06629 69.07102 4028 ft 186 kts 339°
2026-04-26 17:18 41.07834 69.06481 4027 ft 185 kts 338°
2026-04-26 17:18 41.09035 69.05861 4023 ft 185 kts 338°
2026-04-26 17:18 41.10235 69.05242 4018 ft 186 kts 339°
2026-04-26 17:19 41.12635 69.04006 4024 ft 186 kts 338°
2026-04-26 17:19 41.13844 69.03386 4025 ft 187 kts 339°
2026-04-26 17:19 41.15052 69.02770 4030 ft 186 kts 339°
2026-04-26 17:20 41.16261 69.02149 4029 ft 186 kts 339°
2026-04-26 17:20 41.17061 69.01735 4027 ft 186 kts 338°
2026-04-26 17:20 41.18681 69.00928 4024 ft 185 kts 345°
2026-04-26 17:20 41.19932 69.00768 4020 ft 179 kts
2026-04-26 17:21 41.21123 69.01163 4034 ft 177 kts 23°
2026-04-26 17:21 41.22142 69.02037 3915 ft 174 kts 41°
2026-04-26 17:21 41.22851 69.03242 3790 ft 161 kts 59°
2026-04-26 17:21 41.23219 69.04588 3630 ft 152 kts 77°
2026-04-26 17:22 41.23377 69.05957 3395 ft 149 kts 79°
2026-04-26 17:22 41.23530 69.07318 3124 ft 148 kts 78°
2026-04-26 17:22 41.23681 69.08667 3036 ft 149 kts 79°
2026-04-26 17:22 41.23834 69.10027 3038 ft 149 kts 79°
2026-04-26 17:23 41.23987 69.11390 3035 ft 150 kts 78°
2026-04-26 17:23 41.24140 69.12759 3032 ft 150 kts 79°
2026-04-26 17:23 41.24292 69.14124 3024 ft 150 kts 79°
2026-04-26 17:23 41.24445 69.15497 2911 ft 150 kts 79°
2026-04-26 17:24 41.24596 69.16852 2746 ft 150 kts 80°
2026-04-26 17:24 41.24750 69.18235 2559 ft 149 kts 80°
2026-04-26 17:24 41.24902 69.19596 2364 ft 148 kts 80°
2026-04-26 17:24 41.25050 69.20933 2172 ft 148 kts 80°
2026-04-26 17:25 41.25194 69.22276 2004 ft 145 kts 83°
2026-04-26 17:25 41.25349 69.23607 1905 ft 146 kts 78°
2026-04-26 17:25 41.25512 69.24942 1640 ft 146 kts 81°
2026-04-26 17:25 41.25646 69.26266 1434 ft 142 kts 81°
2026-04-26 17:26 41.25780 69.27445 1397 ft 114 kts 80°
2026-04-26 17:26 41.25876 69.28260 1399 ft 64 kts 84°
2026-04-26 17:26 41.25923 69.28765 1392 ft 51 kts 82°
2026-04-26 17:26 41.25967 69.29193 1395 ft 45 kts 82°
2026-04-26 17:27 41.26007 69.29584 1400 ft 43 kts 81°
2026-04-26 17:27 41.26050 69.29941 1398 ft 27 kts 80°
2026-04-26 17:27 41.26175 69.30029 1390 ft 18 kts 311°
2026-04-26 17:27 41.26197 69.29999 1388 ft 0 kts 317°
2026-04-26 17:31 41.26219 69.29947 1384 ft 8 kts 280°
2026-04-26 17:31 41.26221 69.29874 1381 ft 7 kts 268°
2026-04-26 17:31 41.26218 69.29812 1382 ft 6 kts 266°
2026-04-26 17:32 41.26216 69.29761 1385 ft 5 kts 266°
2026-04-26 17:32 41.26213 69.29721 1382 ft 4 kts 265°
2026-04-26 17:32 41.26212 69.29689 1385 ft 3 kts 267°
2026-04-26 17:32 41.26211 69.29665 1385 ft 2 kts 266°
2026-04-26 17:33 41.26210 69.29638 1385 ft 3 kts 269°
2026-04-26 17:33 41.26210 69.29611 1385 ft 3 kts 269°
2026-04-26 17:33 41.26209 69.29565 1381 ft 8 kts 267°
2026-04-26 17:34 41.26205 69.29431 1384 ft 6 kts 267°
2026-04-26 17:34 41.26203 69.29379 1381 ft 5 kts 268°
2026-04-26 17:34 41.26202 69.29336 1384 ft 4 kts 267°
2026-04-26 17:34 41.26200 69.29302 1381 ft 4 kts 267°
2026-04-26 17:35 41.26196 69.29214 1380 ft 14 kts 266°
2026-04-26 17:35 41.26189 69.29071 1381 ft 15 kts 265°
2026-04-26 17:35 41.26185 69.28946 1383 ft 14 kts 268°
2026-04-26 17:35 41.26184 69.28862 1379 ft 7 kts 269°
2026-04-26 17:36 41.26183 69.28804 1379 ft 6 kts 268°
2026-04-26 17:36 41.26182 69.28759 1383 ft 4 kts 268°
2026-04-26 17:36 41.26181 69.28723 1383 ft 3 kts 268°
2026-04-26 17:36 41.26181 69.28696 1383 ft 3 kts 268°
2026-04-26 17:37 41.26183 69.28611 1380 ft 13 kts 272°
2026-04-26 17:37 41.26187 69.28483 1380 ft 15 kts 272°
2026-04-26 17:37 41.26184 69.28342 1378 ft 16 kts 261°
2026-04-26 17:38 41.26154 69.28069 1379 ft 13 kts 261°
2026-04-26 17:38 41.26141 69.27943 1382 ft 14 kts 262°
2026-04-26 17:38 41.26126 69.27807 1378 ft 16 kts 262°
2026-04-26 17:38 41.26112 69.27679 1379 ft 6 kts 261°
2026-04-26 17:39 41.26106 69.27631 1381 ft 5 kts 261°
2026-04-26 17:39 41.26102 69.27594 1379 ft 4 kts 261°
2026-04-26 17:39 41.26099 69.27566 1382 ft 3 kts 261°
2026-04-26 17:39 41.26096 69.27542 1382 ft 4 kts 261°
2026-04-26 17:40 41.26089 69.27479 1380 ft 10 kts 261°
2026-04-26 17:40 41.26085 69.27447 1381 ft 10 kts 261°
2026-04-26 17:40 41.26070 69.27315 1382 ft 7 kts 261°
2026-04-26 17:40 41.26064 69.27264 1379 ft 4 kts 261°
2026-04-26 17:41 41.26059 69.27233 1382 ft 3 kts 253°
2026-04-26 17:41 41.26050 69.27222 1379 ft 1 kts 228°
2026-04-26 17:41 41.26043 69.27211 1382 ft 5 kts 232°
2026-04-26 17:41 41.26013 69.27133 1380 ft 10 kts 245°
2026-04-26 17:42 41.25988 69.27058 1383 ft 8 kts 245°
2026-04-26 17:42 41.25967 69.26997 1383 ft 6 kts 245°
2026-04-26 17:42 41.25951 69.26952 1383 ft 5 kts 245°
2026-04-26 17:42 41.25940 69.26921 1383 ft 3 kts 246°
2026-04-26 17:43 41.25930 69.26889 1384 ft 5 kts 246°
2026-04-26 17:43 41.25931 69.26851 1383 ft 4 kts 287°
2026-04-26 17:43 41.25948 69.26827 1383 ft 4 kts 325°
2026-04-26 17:43 41.25969 69.26811 1380 ft 4 kts 332°
2026-04-26 17:44 41.25992 69.26800 1382 ft 3 kts 351°
2026-04-26 17:44 41.26007 69.26810 1382 ft 2 kts 30°
2026-04-26 17:44 41.26018 69.26820 1382 ft 2 kts 38°
2026-04-26 17:44 41.26025 69.26828 1382 ft 1 kts 39°
2026-04-26 17:45 41.26060 69.26826 1382 ft 9 kts 333°
2026-04-26 17:45 41.26080 69.26806 1382 ft 1 kts 334°
2026-04-26 17:45 41.26085 69.26804 1382 ft 0 kts 339°
2026-04-26 17:45 41.26106 69.26789 1382 ft 8 kts 328°
2026-04-26 17:46 41.26127 69.26772 1382 ft 1 kts 328°
2026-04-26 17:46 41.26131 69.26769 1382 ft 0 kts 327°
2026-04-26 17:46 41.26131 69.26768 1382 ft 0 kts 327°
2026-04-26 17:47 41.26121 69.26777 1382 ft 2 kts 327°
2026-04-26 17:47 41.26120 69.26778 1382 ft 0 kts 327°
2026-04-26 17:47 41.26094 69.26800 1382 ft 7 kts 327°
2026-04-26 17:47 41.26082 69.26810 1382 ft 0 kts 327°
2026-04-26 17:48 41.26089 69.26818 1382 ft 4 kts 35°
2026-04-26 17:48 41.26128 69.26835 1382 ft 6 kts 356°
2026-04-26 17:48 41.26161 69.26816 1381 ft 5 kts 326°
2026-04-26 17:48 41.26163 69.26814 1381 ft 0 kts 326°
2026-04-26 18:00 41.25786 69.26757 1394 ft 372 kts 326°
2026-04-26 18:01 41.24813 69.26612 1381 ft 0 kts 326°
2026-04-26 18:02 41.26165 69.26814 1381 ft 0 kts 325°